[Date Prev][Date Next][Thread Prev][Thread Next] - [Date Index][Thread Index][Author Index]
2 Line ISS Keps 4-19
- Subject: [sarex] 2 Line ISS Keps 4-19
- From: "Dave Larsen PhD" <doc@xxxxxxxxxxx>
- Date: Mon, 18 Apr 2005 18:03:50 -0700
ISS
1 25544U 98067A 05108.97909722 .00021836 00000-0 17246-3 0 2726
2 25544 051.6459 204.0045 0007233 027.8597 316.6575 15.71293399366366
----
Via the sarex mailing list at AMSAT.ORG courtesy of AMSAT-NA.
To unsubscribe, send "unsubscribe sarex" to Majordomo@amsat.org
AMSAT Home